WXM80 ListenWXM80 Stop

You find our weather info also at:

UK Metoffice

WeatherCloud

Weather Underground

Northeastern Weather Network

AWEKAS

Citizen Weather Observer Program (CWOP)

HAMweather, WeatherForYou, PWS Weather


Weather Underground History page Text

Daily Summary for May 16, 2017 Units:  Metric    English   Both
« Previous Day
Next Day »
Daily Weekly Monthly Yearly Custom
  High: Low: Average:
Temperature: 26.6 °C 11.8 °C 19.2 °C
Dew Point: 13.2 °C 8.4 °C 10.6 °C
Humidity: 84 % 36 % 60 %
Wind Speed: 17.5 km/h 0 km/h 3.9 km/h
Wind Gust: 22.2 km/h - -
Wind:- - WSW
Pressure: 1014.8 hPa 1011.1 hPa -
Precipitation: 0 mm    
Historical Graphs
 
 
Tabular Data for May 16, 2017
Time Temperature Dew Point Pressure Wind Wind Speed Wind Gust Humidity Rainfall Rate (Hourly)
00:00 15.1 °C 8.5 °C 1011.1 hPa West 4.3 km/h 5.6 km/h 65 % 0 mm
00:05 15 °C 8.4 °C 1011.1 hPa WSW 5.3 km/h 9.3 km/h 65 % 0 mm
00:11 15 °C 8.4 °C 1011.1 hPa West 4.8 km/h 19.3 km/h 65 % 0 mm
00:16 15 °C 8.4 °C 1011.1 hPa West 8 km/h 14.5 km/h 65 % 0 mm
00:21 15 °C 8.7 °C 1011.4 hPa WNW 9 km/h 11.3 km/h 66 % 0 mm
00:26 14.9 °C 8.7 °C 1011.4 hPa West 4.8 km/h 16.1 km/h 66 % 0 mm
00:31 14.9 °C 8.7 °C 1011.4 hPa West 4.8 km/h 9.7 km/h 66 % 0 mm
00:36 14.9 °C 8.7 °C 1011.4 hPa WNW 4.8 km/h 9.7 km/h 66 % 0 mm
00:41 14.9 °C 8.7 °C 1011.4 hPa WNW 8 km/h 16.1 km/h 66 % 0 mm
00:46 14.9 °C 8.8 °C 1011.4 hPa West 3.2 km/h 12.9 km/h 67 % 0 mm
00:51 14.8 °C 8.8 °C 1011.4 hPa West 3.2 km/h 9.7 km/h 67 % 0 mm
00:56 14.8 °C 8.8 °C 1011.4 hPa West 1.6 km/h 14.5 km/h 67 % 0 mm
01:01 14.8 °C 8.7 °C 1011.4 hPa WSW 6.8 km/h 16.7 km/h 67 % 0 mm
01:06 14.8 °C 8.7 °C 1011.4 hPa WSW 8 km/h 16.1 km/h 67 % 0 mm
01:11 14.8 °C 8.7 °C 1011.4 hPa WSW 8 km/h 16.1 km/h 67 % 0 mm
01:16 14.8 °C 8.7 °C 1011.4 hPa West 8 km/h 19.3 km/h 67 % 0 mm
01:21 14.7 °C 8.7 °C 1011.4 hPa WSW 3.2 km/h 19.3 km/h 67 % 0 mm
01:26 14.7 °C 8.7 °C 1011.4 hPa WSW 3.2 km/h 8 km/h 67 % 0 mm
01:31 14.7 °C 8.7 °C 1011.4 hPa WSW 4.8 km/h 12.9 km/h 67 % 0 mm
01:36 14.7 °C 8.9 °C 1011.7 hPa WSW 8 km/h 16.1 km/h 68 % 0 mm
01:41 14.7 °C 8.9 °C 1011.7 hPa SW 3.9 km/h 5.6 km/h 68 % 0 mm
01:46 14.7 °C 9.1 °C 1011.7 hPa SW 3.2 km/h 8 km/h 69 % 0 mm
01:51 14.6 °C 9 °C 1011.7 hPa West 2.7 km/h 5.6 km/h 69 % 0 mm
01:56 14.6 °C 8.9 °C 1011.4 hPa WSW 5.6 km/h 9.7 km/h 69 % 0 mm
02:01 14.5 °C 9.1 °C 1011.7 hPa WSW 3.4 km/h 6.4 km/h 70 % 0 mm
02:06 14.4 °C 9.1 °C 1011.7 hPa West 1.8 km/h 5.6 km/h 70 % 0 mm
02:11 14.4 °C 9.2 °C 1011.7 hPa West 1 km/h 3.7 km/h 71 % 0 mm
02:16 14.3 °C 9.1 °C 1011.4 hPa WSW 2.3 km/h 5.6 km/h 71 % 0 mm
02:21 14.2 °C 9.2 °C 1011.4 hPa West 2.9 km/h 6.4 km/h 72 % 0 mm
02:26 14.1 °C 9.1 °C 1011.7 hPa SW 2.6 km/h 5.6 km/h 72 % 0 mm
02:31 14.1 °C 9.1 °C 1011.7 hPa West 0.6 km/h 5.6 km/h 72 % 0 mm
02:36 14 °C 9.2 °C 1011.4 hPa WSW 1.4 km/h 3.2 km/h 73 % 0 mm
02:41 13.9 °C 9.1 °C 1011.4 hPa Calm   3.7 km/h 73 % 0 mm
02:46 13.8 °C 9.1 °C 1011.4 hPa WSW 0.2 km/h 9.3 km/h 73 % 0 mm
02:52 13.8 °C 9 °C 1011.4 hPa WSW 2.3 km/h 3.7 km/h 73 % 0 mm
02:57 13.7 °C 8.9 °C 1011.4 hPa Calm   3.7 km/h 73 % 0 mm
03:02 13.7 °C 8.9 °C 1011.4 hPa Calm   1.9 km/h 73 % 0 mm
03:07 13.6 °C 8.8 °C 1011.4 hPa WSW 0.3 km/h 1.9 km/h 73 % 0 mm
03:12 13.6 °C 9 °C 1011.4 hPa Calm   1.9 km/h 74 % 0 mm
03:17 13.5 °C 8.9 °C 1011.4 hPa Calm     74 % 0 mm
03:22 13.4 °C 9.1 °C 1011.4 hPa WSW 0.3 km/h 1.9 km/h 75 % 0 mm
03:27 13.3 °C 9.1 °C 1011.7 hPa WSW 1.8 km/h 3.7 km/h 76 % 0 mm
03:32 13.1 °C 9 °C 1011.7 hPa WSW 2.4 km/h 3.7 km/h 76 % 0 mm
03:38 12.9 °C 9 °C 1011.7 hPa WSW 0.5 km/h 1.9 km/h 77 % 0 mm
03:43 12.8 °C 9.1 °C 1011.7 hPa WSW 2.1 km/h 3.7 km/h 78 % 0 mm
03:48 12.7 °C 9.2 °C 1011.7 hPa WSW 2.4 km/h 5.6 km/h 79 % 0 mm
03:53 12.6 °C 9.2 °C 1011.7 hPa WSW 2.9 km/h 5.6 km/h 80 % 0 mm
03:58 12.4 °C 9.1 °C 1011.7 hPa WSW 1.4 km/h 3.7 km/h 80 % 0 mm
04:03 12.3 °C 9 °C 1011.7 hPa Calm   1.9 km/h 80 % 0 mm
04:08 12.3 °C 9.1 °C 1011.7 hPa WSW 0.8 km/h 3.7 km/h 81 % 0 mm
04:13 12.2 °C 9 °C 1012.1 hPa WSW 2.4 km/h 3.7 km/h 81 % 0 mm
04:18 12.1 °C 9.1 °C 1012.1 hPa WSW 3.7 km/h 6.4 km/h 82 % 0 mm
04:23 12 °C 9.2 °C 1012.4 hPa WSW 2.1 km/h 5.6 km/h 83 % 0 mm
04:28 11.9 °C 9.2 °C 1012.4 hPa West 4.2 km/h 9.7 km/h 83 % 0 mm
04:33 11.8 °C 9.2 °C 1012.4 hPa West 3.7 km/h 5.6 km/h 84 % 0 mm
04:38 11.8 °C 9.2 °C 1012.4 hPa WSW 1.8 km/h 3.7 km/h 84 % 0 mm
04:43 11.9 °C 9.3 °C 1012.4 hPa West 4.3 km/h 4.8 km/h 84 % 0 mm
04:49 11.9 °C 9.3 °C 1012.4 hPa SW 0.5 km/h 3.7 km/h 84 % 0 mm
04:54 11.9 °C 9.3 °C 1012.4 hPa WNW 7.1 km/h 11.1 km/h 84 % 0 mm
04:59 11.9 °C 9.2 °C 1012.4 hPa WNW 1.1 km/h 3.7 km/h 83 % 0 mm
05:04 12 °C 9.2 °C 1012.4 hPa WNW 3.2 km/h 5.6 km/h 83 % 0 mm
05:09 12 °C 9.2 °C 1012.4 hPa West 2.4 km/h 5.6 km/h 83 % 0 mm
05:14 12 °C 9.2 °C 1012.8 hPa WSW 4.2 km/h 5.6 km/h 83 % 0 mm
05:19 12 °C 9.2 °C 1012.8 hPa WSW 3.4 km/h 9.3 km/h 83 % 0 mm
05:24 12.1 °C 9.1 °C 1013.1 hPa WSW 4.3 km/h 6.4 km/h 82 % 0 mm
05:29 12.1 °C 9.1 °C 1013.1 hPa West 4.2 km/h 13 km/h 82 % 0 mm
05:34 12.2 °C 9.2 °C 1013.4 hPa West 3.9 km/h 13 km/h 82 % 0 mm
05:39 12.3 °C 9.3 °C 1013.4 hPa WSW 4.3 km/h 9.3 km/h 82 % 0 mm
05:44 12.3 °C 9.2 °C 1013.4 hPa WSW 3.1 km/h 9.7 km/h 81 % 0 mm
05:49 12.4 °C 9.2 °C 1013.1 hPa WSW 1.4 km/h 5.6 km/h 81 % 0 mm
05:54 12.4 °C 9.3 °C 1013.4 hPa WSW 4.5 km/h 7.4 km/h 81 % 0 mm
05:59 12.5 °C 9.5 °C 1013.4 hPa SW 5.6 km/h 9.3 km/h 82 % 0 mm
06:04 12.6 °C 9.6 °C 1013.4 hPa West 3.1 km/h 8 km/h 82 % 0 mm
06:09 12.6 °C 9.6 °C 1013.4 hPa South 5.3 km/h 7.4 km/h 82 % 0 mm
06:14 12.6 °C 9.4 °C 1013.4 hPa WSW 4.2 km/h 9.3 km/h 81 % 0 mm
06:19 12.7 °C 9.6 °C 1013.4 hPa West 9 km/h 13 km/h 81 % 0 mm
06:24 12.8 °C 9.7 °C 1013.8 hPa WSW 1.8 km/h 5.6 km/h 81 % 0 mm
06:29 12.9 °C 9.8 °C 1013.8 hPa WNW 6.1 km/h 9.3 km/h 81 % 0 mm
06:34 13.1 °C 9.7 °C 1013.8 hPa WSW 4.7 km/h 13 km/h 80 % 0 mm
06:39 13.3 °C 9.9 °C 1014.1 hPa WSW 7.2 km/h 13 km/h 80 % 0 mm
06:44 13.5 °C 9.9 °C 1014.1 hPa WSW 5.1 km/h 9.3 km/h 79 % 0 mm
06:49 13.7 °C 9.9 °C 1013.8 hPa SSW 3.1 km/h 7.4 km/h 78 % 0 mm
06:54 14 °C 10.2 °C 1013.8 hPa WSW 7.6 km/h 13 km/h 78 % 0 mm
06:59 14.2 °C 10.1 °C 1013.8 hPa West 7.2 km/h 9.3 km/h 76 % 0 mm
07:04 14.5 °C 10.1 °C 1013.8 hPa SW 9.8 km/h 12.9 km/h 75 % 0 mm
07:06 14.5 °C 10.1 °C 1013.8 hPa WSW 9.7 km/h 16.1 km/h 75 % 0 mm
07:11 14.8 °C 10 °C 1013.8 hPa West 6.3 km/h 11.1 km/h 73 % 0 mm
07:16 14.9 °C 10.2 °C 1013.8 hPa SW 4.8 km/h 14.8 km/h 73 % 0 mm
07:21 15.1 °C 10.3 °C 1013.8 hPa WNW 1.6 km/h 9.7 km/h 73 % 0 mm
07:26 15.3 °C 10.4 °C 1013.8 hPa WSW 1.4 km/h 3.7 km/h 73 % 0 mm
07:31 15.3 °C 10.1 °C 1014.1 hPa West 8 km/h 11.3 km/h 71 % 0 mm
07:36 15.4 °C 10.2 °C 1014.1 hPa West 3.2 km/h 14.5 km/h 71 % 0 mm
07:41 15.4 °C 10 °C 1014.1 hPa West 3.2 km/h 11.3 km/h 70 % 0 mm
07:46 15.4 °C 10 °C 1014.4 hPa West 8 km/h 16.1 km/h 70 % 0 mm
07:51 15.4 °C 10.2 °C 1014.4 hPa West 1.6 km/h 8 km/h 71 % 0 mm
07:56 15.5 °C 10.4 °C 1014.4 hPa WSW 4.8 km/h 11.3 km/h 72 % 0 mm
08:01 15.6 °C 10.6 °C 1014.4 hPa WNW 1 km/h 5.6 km/h 72 % 0 mm
08:06 15.8 °C 10.9 °C 1014.4 hPa West 2.4 km/h 5.6 km/h 73 % 0 mm
08:11 15.9 °C 10.8 °C 1014.1 hPa SW 4.5 km/h 7.4 km/h 72 % 0 mm
08:16 16.1 °C 10.8 °C 1014.1 hPa WSW 5.5 km/h 11.1 km/h 71 % 0 mm
08:21 16.3 °C 10.8 °C 1014.1 hPa WSW 2.6 km/h 5.6 km/h 70 % 0 mm
08:26 16.4 °C 10.7 °C 1014.1 hPa West 5 km/h 9.7 km/h 69 % 0 mm
08:31 16.7 °C 10.7 °C 1014.4 hPa SW 2.6 km/h 5.6 km/h 68 % 0 mm
08:36 16.8 °C 10.8 °C 1014.4 hPa WSW 7.2 km/h 9.7 km/h 68 % 0 mm
08:41 16.9 °C 10.8 °C 1014.4 hPa WSW 3.5 km/h 5.6 km/h 67 % 0 mm
08:46 17.1 °C 10.9 °C 1014.8 hPa WNW 2.7 km/h 13 km/h 67 % 0 mm
08:51 17.2 °C 11.3 °C 1014.8 hPa West 6.1 km/h 9.3 km/h 68 % 0 mm
08:56 17.4 °C 10.9 °C 1014.8 hPa WNW 5.3 km/h 9.3 km/h 66 % 0 mm
09:01 17.6 °C 11.1 °C 1014.8 hPa WSW 5.3 km/h 12.9 km/h 66 % 0 mm
09:06 17.7 °C 11.2 °C 1014.8 hPa SSW 7.4 km/h 11.1 km/h 66 % 0 mm
09:11 17.8 °C 11.1 °C 1014.8 hPa WSW 2.9 km/h 11.1 km/h 65 % 0 mm
09:16 17.9 °C 11.3 °C 1014.8 hPa West 6.8 km/h 9.3 km/h 65 % 0 mm
09:21 18.1 °C 11.7 °C 1014.8 hPa SW 5.6 km/h 9.7 km/h 66 % 0 mm
09:26 18.3 °C 11.4 °C 1014.8 hPa WNW 5 km/h 11.1 km/h 64 % 0 mm
09:31 18.6 °C 11.6 °C 1014.8 hPa WNW 4.2 km/h 7.4 km/h 64 % 0 mm
09:36 18.7 °C 11.1 °C 1014.8 hPa West 7.6 km/h 14.8 km/h 61 % 0 mm
09:41 18.9 °C 11 °C 1014.8 hPa WNW 8.2 km/h 14.8 km/h 60 % 0 mm
09:46 19.2 °C 12 °C 1014.8 hPa West 3.9 km/h 11.1 km/h 63 % 0 mm
09:51 19.6 °C 11.3 °C 1014.8 hPa WNW 6.6 km/h 9.7 km/h 59 % 0 mm
09:56 19.9 °C 11.6 °C 1014.8 hPa West 5.8 km/h 11.1 km/h 59 % 0 mm
10:01 20.3 °C 12 °C 1014.8 hPa WNW 4.8 km/h 12.9 km/h 59 % 0 mm
10:06 20.7 °C 11.8 °C 1014.8 hPa WNW 7.2 km/h 14.8 km/h 57 % 0 mm
10:11 21.2 °C 12.6 °C 1014.8 hPa NW 1.1 km/h 5.6 km/h 58 % 0 mm
10:12 21.2 °C 13.2 °C 1014.8 hPa NW 0.3 km/h 3.7 km/h 60 % 0 mm
10:17 21.5 °C 12.6 °C 1014.8 hPa West 0.8 km/h 6.4 km/h 57 % 0 mm
10:22 21.7 °C 12 °C 1014.8 hPa NW 6 km/h 9.3 km/h 54 % 0 mm
10:27 22.1 °C 12.6 °C 1014.8 hPa West 6.6 km/h 12.9 km/h 55 % 0 mm
10:32 22.3 °C 11.7 °C 1014.4 hPa West 8.5 km/h 13 km/h 51 % 0 mm
10:37 22.3 °C 11.7 °C 1014.8 hPa WNW 6.4 km/h 18.5 km/h 51 % 0 mm
10:42 22.3 °C 11.1 °C 1014.8 hPa WNW 5.6 km/h 9.3 km/h 49 % 0 mm
10:47 22.4 °C 11.2 °C 1014.8 hPa WNW 5.6 km/h 11.1 km/h 49 % 0 mm
10:52 22.4 °C 11.8 °C 1014.8 hPa WNW 2.4 km/h 11.1 km/h 51 % 0 mm
10:57 22.6 °C 11 °C 1014.8 hPa West 6 km/h 9.3 km/h 48 % 0 mm
11:02 22.6 °C 12.2 °C 1014.8 hPa NNW 1.4 km/h 18.5 km/h 52 % 0 mm
11:07 22.8 °C 11.5 °C 1014.8 hPa WSW 8.4 km/h 14.5 km/h 49 % 0 mm
11:12 22.9 °C 11.6 °C 1014.8 hPa SSW 6.8 km/h 14.8 km/h 49 % 0 mm
11:17 23.1 °C 11.4 °C 1014.8 hPa West 9.7 km/h 14.8 km/h 48 % 0 mm
11:21 23.2 °C 11.8 °C 1014.8 hPa SSW 3.9 km/h 13 km/h 49 % 0 mm
11:26 23.1 °C 11.2 °C 1014.8 hPa NW 6.3 km/h 16.7 km/h 47 % 0 mm
11:31 23.1 °C 11.5 °C 1014.8 hPa SSW 6.9 km/h 14.8 km/h 48 % 0 mm
11:32 23.1 °C 11.4 °C 1014.8 hPa South 6.8 km/h 12.9 km/h 48 % 0 mm
11:37 22.9 °C 11.7 °C 1014.8 hPa SW 6.4 km/h 13 km/h 49 % 0 mm
11:42 22.8 °C 11.2 °C 1014.8 hPa SW 5.8 km/h 11.3 km/h 48 % 0 mm
11:47 22.8 °C 11.6 °C 1014.8 hPa WSW 7.6 km/h 14.8 km/h 49 % 0 mm
11:52 22.8 °C 11.6 °C 1014.8 hPa WSW 8 km/h 16.1 km/h 49 % 0 mm
11:57 22.9 °C 11.6 °C 1014.8 hPa SW 8 km/h 12.9 km/h 49 % 0 mm
12:02 22.9 °C 11 °C 1014.8 hPa SW 9.2 km/h 16.1 km/h 47 % 0 mm
12:07 22.9 °C 11.6 °C 1014.8 hPa SSW 3.7 km/h 14.8 km/h 49 % 0 mm
12:12 22.9 °C 11.3 °C 1014.8 hPa West 9.8 km/h 16.7 km/h 48 % 0 mm
12:17 22.9 °C 11.9 °C 1014.8 hPa SSW 4.7 km/h 14.8 km/h 50 % 0 mm
12:22 22.9 °C 11.6 °C 1014.4 hPa WSW 8.2 km/h 12.9 km/h 49 % 0 mm
12:27 22.8 °C 10.6 °C 1014.8 hPa WSW 9.3 km/h 18.5 km/h 46 % 0 mm
12:32 22.7 °C 10.8 °C 1014.4 hPa South 7.9 km/h 16.7 km/h 47 % 0 mm
12:37 22.7 °C 11.2 °C 1014.4 hPa West 10.9 km/h 18.5 km/h 48 % 0 mm
12:42 22.8 °C 10.9 °C 1014.4 hPa WNW 11.6 km/h 13 km/h 47 % 0 mm
12:47 22.9 °C 11 °C 1014.4 hPa WSW 6.3 km/h 18.5 km/h 47 % 0 mm
12:52 23 °C 11.1 °C 1014.1 hPa WSW 6 km/h 14.8 km/h 47 % 0 mm
12:57 23.3 °C 11.7 °C 1014.1 hPa SSW 11.1 km/h 16.7 km/h 48 % 0 mm
12:58 23.3 °C 11.7 °C 1014.1 hPa SW 10.5 km/h 16.7 km/h 48 % 0 mm
13:03 23.6 °C 11.3 °C 1014.1 hPa SW 9.8 km/h 18.5 km/h 46 % 0 mm
13:08 23.9 °C 11.2 °C 1014.1 hPa WSW 13.4 km/h 18.5 km/h 45 % 0 mm
13:13 24.2 °C 11.5 °C 1014.1 hPa West 6.3 km/h 11.3 km/h 45 % 0 mm
13:18 24.3 °C 11.3 °C 1014.1 hPa West 10 km/h 14.8 km/h 44 % 0 mm
13:23 24.4 °C 11.4 °C 1014.1 hPa WSW 5.1 km/h 13 km/h 44 % 0 mm
13:28 24.5 °C 10.4 °C 1014.1 hPa WSW 9.2 km/h 16.7 km/h 41 % 0 mm
13:33 24.5 °C 11.1 °C 1014.1 hPa SW 10.5 km/h 16.7 km/h 43 % 0 mm
13:38 24.6 °C 12.6 °C 1013.8 hPa WNW 5.8 km/h 11.3 km/h 47 % 0 mm
13:43 24.7 °C 10.9 °C 1014.1 hPa WNW 8.2 km/h 18.5 km/h 42 % 0 mm
13:48 24.7 °C 10.9 °C 1014.1 hPa WSW 9 km/h 16.7 km/h 42 % 0 mm
13:53 24.8 °C 10.6 °C 1014.1 hPa West 9.2 km/h 14.8 km/h 41 % 0 mm
13:58 24.8 °C 11.7 °C 1014.1 hPa WSW 3.2 km/h 11.1 km/h 44 % 0 mm
14:03 24.9 °C 10.7 °C 1014.1 hPa SW 10.1 km/h 19.3 km/h 41 % 0 mm
14:08 24.9 °C 10.3 °C 1014.1 hPa SW 17.5 km/h 22.2 km/h 40 % 0 mm
14:13 24.9 °C 11.4 °C 1014.1 hPa West 12.4 km/h 16.7 km/h 43 % 0 mm
14:18 24.9 °C 11.2 °C 1014.1 hPa SSW 7.9 km/h 16.7 km/h 42 % 0 mm
14:23 24.9 °C 11.4 °C 1014.1 hPa SW 5.3 km/h 9.3 km/h 43 % 0 mm
14:28 24.8 °C 11.4 °C 1014.1 hPa WNW 2.1 km/h 13 km/h 43 % 0 mm
14:33 24.8 °C 13.1 °C 1014.1 hPa West 2.9 km/h 11.1 km/h 48 % 0 mm
14:38 24.9 °C 11.5 °C 1014.1 hPa WSW 3.2 km/h 9.3 km/h 43 % 0 mm
14:43 25.1 °C 11.2 °C 1014.1 hPa WSW 2.4 km/h 5.6 km/h 42 % 0 mm
14:48 25.1 °C 11.2 °C 1014.1 hPa SW 7.1 km/h 16.7 km/h 42 % 0 mm
14:53 25.1 °C 11.6 °C 1014.1 hPa West 5.6 km/h 5.6 km/h 43 % 0 mm
14:58 25.2 °C 12.1 °C 1014.1 hPa West 5.1 km/h 7.4 km/h 44 % 0 mm
15:03 25.3 °C 11.4 °C 1014.1 hPa WSW 8.4 km/h 11.3 km/h 42 % 0 mm
15:09 25.4 °C 11.9 °C 1013.8 hPa West 4.8 km/h 9.7 km/h 43 % 0 mm
15:14 25.6 °C 10.9 °C 1013.8 hPa SW 9.5 km/h 13 km/h 40 % 0 mm
15:19 25.7 °C 11.1 °C 1013.8 hPa West 7.9 km/h 16.7 km/h 40 % 0 mm
15:24 25.8 °C 11.2 °C 1013.8 hPa SW 10.8 km/h 18.5 km/h 40 % 0 mm
15:29 25.8 °C 11.2 °C 1013.8 hPa West 6.3 km/h 9.3 km/h 40 % 0 mm
15:34 25.8 °C 10.8 °C 1013.4 hPa West 12.7 km/h 18.5 km/h 39 % 0 mm
15:39 25.8 °C 11.6 °C 1013.4 hPa WNW 2.6 km/h 6.4 km/h 41 % 0 mm
15:44 25.8 °C 11.6 °C 1013.4 hPa West 6 km/h 11.3 km/h 41 % 0 mm
15:49 25.7 °C 10.7 °C 1013.4 hPa WSW 8.9 km/h 16.7 km/h 39 % 0 mm
15:54 25.6 °C 11.4 °C 1013.4 hPa WSW 3.7 km/h 9.7 km/h 41 % 0 mm
15:59 25.7 °C 11.4 °C 1013.4 hPa WNW 4 km/h 5.6 km/h 41 % 0 mm
16:04 25.7 °C 11.1 °C 1013.4 hPa SW 6.1 km/h 13 km/h 40 % 0 mm
16:09 25.9 °C 12.1 °C 1013.1 hPa WSW 9.3 km/h 12.9 km/h 42 % 0 mm
16:14 26.1 °C 11 °C 1013.1 hPa SW 3.5 km/h 9.3 km/h 39 % 0 mm
16:19 26.2 °C 11.1 °C 1013.1 hPa SW 6 km/h 9.3 km/h 39 % 0 mm
16:24 26.3 °C 11.2 °C 1013.1 hPa SW 6.4 km/h 9.7 km/h 39 % 0 mm
16:29 26.3 °C 11.3 °C 1013.1 hPa WSW 3.5 km/h 8 km/h 39 % 0 mm
16:34 26.4 °C 11 °C 1012.8 hPa WSW 4.3 km/h 11.3 km/h 38 % 0 mm
16:39 26.6 °C 11.4 °C 1012.8 hPa West 4.2 km/h 9.3 km/h 39 % 0 mm
16:44 26.6 °C 10.7 °C 1012.8 hPa WSW 4.8 km/h 11.1 km/h 37 % 0 mm
16:50 26.6 °C 10.3 °C 1012.8 hPa West 8 km/h 11.1 km/h 36 % 0 mm
16:55 26.6 °C 11.1 °C 1012.8 hPa WSW 2.7 km/h 5.6 km/h 38 % 0 mm
17:00 26.6 °C 10.7 °C 1012.8 hPa WSW 2.3 km/h 5.6 km/h 37 % 0 mm
17:05 26.4 °C 11 °C 1012.8 hPa WSW 1.4 km/h 3.7 km/h 38 % 0 mm
17:10 26.3 °C 10.9 °C 1012.8 hPa Calm     38 % 0 mm
17:15 26.2 °C 10.4 °C 1012.8 hPa WSW 1 km/h 3.7 km/h 37 % 0 mm
17:20 26.1 °C 10.7 °C 1012.8 hPa WSW 0.2 km/h 1.9 km/h 38 % 0 mm
17:25 26 °C 10.6 °C 1012.8 hPa Calm   1.9 km/h 38 % 0 mm
17:30 25.8 °C 11.2 °C 1012.8 hPa Calm     40 % 0 mm
17:35 25.7 °C 10.7 °C 1012.4 hPa WSW 0.5 km/h 1.9 km/h 39 % 0 mm
17:40 25.6 °C 11.4 °C 1012.4 hPa WSW 0.2 km/h 1.9 km/h 41 % 0 mm
17:45 25.5 °C 10.5 °C 1012.4 hPa WSW 0.2 km/h 1.9 km/h 39 % 0 mm
17:50 25.4 °C 10.5 °C 1012.4 hPa Calm   1.9 km/h 39 % 0 mm
17:55 25.4 °C 10.4 °C 1012.4 hPa Calm     39 % 0 mm
18:00 25.3 °C 11.1 °C 1012.4 hPa Calm     41 % 0 mm
18:05 25.3 °C 10.8 °C 1012.4 hPa Calm     40 % 0 mm
18:10 25.3 °C 10.7 °C 1012.4 hPa Calm     40 % 0 mm
18:15 25.2 °C 11 °C 1012.4 hPa Calm     41 % 0 mm
18:20 25.1 °C 10.9 °C 1012.4 hPa Calm     41 % 0 mm
18:25 25.1 °C 12.6 °C 1012.4 hPa WSW 1.4 km/h 3.7 km/h 46 % 0 mm
18:30 24.9 °C 12.8 °C 1012.4 hPa WSW 1.9 km/h 5.6 km/h 47 % 0 mm
18:35 24.7 °C 12.7 °C 1012.4 hPa SW 0.2 km/h 3.7 km/h 47 % 0 mm
18:40 24.6 °C 12.2 °C 1012.4 hPa SW 1.1 km/h 5.6 km/h 46 % 0 mm
18:45 24.2 °C 11.9 °C 1012.4 hPa SW 0.6 km/h 5.6 km/h 46 % 0 mm
18:50 24 °C 12.3 °C 1012.4 hPa South 1.6 km/h 3.2 km/h 48 % 0 mm
18:55 23.8 °C 11.8 °C 1012.4 hPa SSW 0.5 km/h 3.2 km/h 47 % 0 mm
19:00 23.7 °C 12 °C 1012.4 hPa South 0.2 km/h 1.9 km/h 48 % 0 mm
19:05 23.6 °C 12.2 °C 1012.4 hPa South 1 km/h 3.7 km/h 49 % 0 mm
19:10 23.4 °C 12.1 °C 1012.4 hPa South 0.2 km/h 3.7 km/h 49 % 0 mm
19:15 23.3 °C 12 °C 1012.8 hPa SW 1 km/h 3.7 km/h 49 % 0 mm
19:21 23.2 °C 11.9 °C 1012.8 hPa SW 1.6 km/h 4.8 km/h 49 % 0 mm
19:26 23.1 °C 12.1 °C 1012.8 hPa Calm   3.2 km/h 50 % 0 mm
19:30 22.9 °C 11.9 °C 1012.8 hPa Calm   3.2 km/h 50 % 0 mm
19:35 22.7 °C 12.1 °C 1012.8 hPa Calm   3.2 km/h 51 % 0 mm
19:40 22.5 °C 11.9 °C 1012.8 hPa SW 1.6 km/h 4.8 km/h 51 % 0 mm
19:45 22.3 °C 12 °C 1012.8 hPa WSW 1.6 km/h 8 km/h 52 % 0 mm
19:51 22.2 °C 11.8 °C 1012.8 hPa WSW 1.6 km/h 4.8 km/h 52 % 0 mm
19:55 21.9 °C 11.7 °C 1012.8 hPa WSW 1.6 km/h 3.2 km/h 52 % 0 mm
20:01 21.8 °C 11.5 °C 1013.1 hPa WSW 0.8 km/h 3.7 km/h 52 % 0 mm
20:06 21.6 °C 11.6 °C 1013.1 hPa WSW 1.4 km/h 3.7 km/h 53 % 0 mm
20:11 21.4 °C 11.7 °C 1013.1 hPa Calm   3.7 km/h 54 % 0 mm
20:16 21.3 °C 11.6 °C 1013.1 hPa WSW 0.6 km/h 1.9 km/h 54 % 0 mm
20:21 21.1 °C 11.4 °C 1013.1 hPa WSW 0.2 km/h 1.9 km/h 54 % 0 mm
20:26 21 °C 11.6 °C 1013.1 hPa Calm     55 % 0 mm
20:31 20.8 °C 11.4 °C 1013.1 hPa Calm   1.9 km/h 55 % 0 mm
20:36 20.6 °C 11.5 °C 1012.8 hPa Calm   1.9 km/h 56 % 0 mm
20:41 20.4 °C 11.4 °C 1012.8 hPa Calm     56 % 0 mm
20:46 20.3 °C 11.5 °C 1013.1 hPa WSW 0.3 km/h 3.7 km/h 57 % 0 mm
20:51 20.1 °C 11.3 °C 1013.1 hPa WSW 0.2 km/h 1.9 km/h 57 % 0 mm
20:56 19.9 °C 11.4 °C 1013.1 hPa WSW 0.6 km/h 3.7 km/h 58 % 0 mm
21:01 19.7 °C 11.2 °C 1013.1 hPa WSW 0.6 km/h 1.9 km/h 58 % 0 mm
21:06 19.6 °C 11.1 °C 1013.4 hPa WSW 2.1 km/h 5.6 km/h 58 % 0 mm
21:11 19.4 °C 10.9 °C 1013.4 hPa Calm   1.9 km/h 58 % 0 mm
21:16 19.3 °C 11.1 °C 1013.4 hPa Calm     59 % 0 mm
21:21 19.2 °C 11 °C 1013.4 hPa WSW 2.3 km/h 5.6 km/h 59 % 0 mm
21:26 19.1 °C 10.9 °C 1013.4 hPa SW 2.3 km/h 3.7 km/h 59 % 0 mm
21:31 19 °C 11.1 °C 1013.4 hPa WSW 4.8 km/h 7.4 km/h 60 % 0 mm
21:36 18.9 °C 11.3 °C 1013.4 hPa WSW 5 km/h 6.4 km/h 61 % 0 mm
21:41 18.8 °C 11.2 °C 1013.4 hPa SW 4.5 km/h 7.4 km/h 61 % 0 mm
21:46 18.8 °C 11.1 °C 1013.4 hPa SW 4.3 km/h 5.6 km/h 61 % 0 mm
21:47 18.8 °C 11.1 °C 1013.4 hPa SW 4.8 km/h 5.6 km/h 61 % 0 mm
21:52 18.7 °C 11 °C 1013.4 hPa SW 3.2 km/h 5.6 km/h 61 % 0 mm
21:57 18.6 °C 11.2 °C 1013.4 hPa SW 3.2 km/h 5.6 km/h 62 % 0 mm
22:02 18.6 °C 11.1 °C 1013.8 hPa SW 1.8 km/h 3.7 km/h 62 % 0 mm
22:07 18.4 °C 11.3 °C 1013.8 hPa Calm     63 % 0 mm
22:12 18.4 °C 11.2 °C 1013.8 hPa Calm     63 % 0 mm
22:17 18.3 °C 11.1 °C 1013.8 hPa SW 0.2 km/h   63 % 0 mm
22:22 18.2 °C 11.1 °C 1013.8 hPa Calm     63 % 0 mm
22:27 18.1 °C 11.2 °C 1013.8 hPa Calm     64 % 0 mm
22:32 18 °C 11.3 °C 1013.8 hPa Calm   3.7 km/h 65 % 0 mm
22:37 17.9 °C 11.2 °C 1013.8 hPa Calm   1.9 km/h 65 % 0 mm
22:42 17.8 °C 11.1 °C 1013.4 hPa Calm     65 % 0 mm
22:47 17.7 °C 11 °C 1013.4 hPa SW 0.5 km/h 1.9 km/h 65 % 0 mm
22:52 17.5 °C 11.1 °C 1013.4 hPa SW 0.2 km/h 1.9 km/h 66 % 0 mm
22:53 17.5 °C 11.1 °C 1013.4 hPa SW 0.5 km/h 1.9 km/h 66 % 0 mm
22:58 17.4 °C 10.9 °C 1013.4 hPa SW 0.3 km/h 1.6 km/h 66 % 0 mm
23:03 17.2 °C 11.1 °C 1013.4 hPa Calm     67 % 0 mm
23:09 17.1 °C 10.9 °C 1013.8 hPa SW 0.5 km/h 3.7 km/h 67 % 0 mm
23:14 17 °C 10.8 °C 1013.8 hPa Calm     67 % 0 mm
23:19 16.9 °C 10.8 °C 1013.8 hPa Calm     67 % 0 mm
23:24 16.8 °C 10.9 °C 1013.8 hPa SW 0.6 km/h 1.9 km/h 68 % 0 mm
23:29 16.7 °C 10.8 °C 1013.8 hPa SW 1.6 km/h 3.7 km/h 68 % 0 mm
23:34 16.6 °C 10.7 °C 1013.8 hPa SW 1.6 km/h 3.7 km/h 68 % 0 mm
23:39 16.5 °C 10.6 °C 1013.8 hPa SW 0.5 km/h 1.9 km/h 68 % 0 mm
23:44 16.4 °C 10.7 °C 1013.8 hPa Calm   1.9 km/h 69 % 0 mm
23:49 16.4 °C 10.7 °C 1013.8 hPa SW 2.3 km/h 3.7 km/h 69 % 0 mm
23:54 16.3 °C 10.6 °C 1013.8 hPa SW 0.8 km/h 3.7 km/h 69 % 0 mm
23:59 16.3 °C 10.6 °C 1013.8 hPa Calm   1.9 km/h 69 % 0 mm
Crab Meadow Weather
Compliments of Weather Underground - 3 mb

Script developed by  Jim McMurry - jmcmurry@mwt.net Adapted for the template by  Wim van der Kuil - Leuven-Template.eu

Weather Terms: Flash Flood Warning - Flash flooding is occurring, imminent or highly likely. A flash flood is a flood that occurs within 6 hours of excessive rainfall and that poses a threat to life and/or property. Ice jams and dam failures can also cause flash floods. These warnings are issued on a county by county basis by the local Weather Forecast Office in Upton and are generally in effect for up to 6 hours.